Hourly Data Report for February 22, 2019

TORONTO CITY
ONTARIO
Current Station Operator: ECCC - MSC

43°40'00.000" N
79°24'00.000" W
112.50 m
6158355
71508
XTO

Download Data

Hourly Data (February 2019)
Hourly Data Report for February 22, 2019
TIME
LST
Temp Definition
°C
Dew Point Definition
°C
Rel Hum Definition
%
Precip. Amount Definition
mm

Wind Dir Definition
10's deg

Wind Spd Definition
km/h
Visibility Definition
km
Stn Press Definition
kPa
Hmdx Definition


Wind Chill Definition


Weather Definition


00:00 -0.3 -5.7 67 0.0       101.04     LegendNANA
01:00 -0.9 -5.7 70 0.0       101.07     LegendNANA
02:00 -1.7 -5.9 73 0.0       101.14     LegendNANA
03:00 -1.7 -5.6 74 0.0       101.19     LegendNANA
04:00 -2.0 -5.6 76 0.0       101.24     LegendNANA
05:00 -1.6 -5.5 75 0.0       101.34     LegendNANA
06:00 -1.1 -5.2 74 0.0       101.38     LegendNANA
07:00 -0.8 -5.1 73 0.0       101.49     LegendNANA
08:00 -0.7 -5.4 71 0.0       101.56     LegendNANA
09:00 -0.2 -5.2 69 0.0       101.65     LegendNANA
10:00 0.9 -5.1 64 0.0       101.64     LegendNANA
11:00 2.5 -6.7 51 0.0       101.68     LegendNANA
12:00 2.2 -7.8 47 0.0       101.67     LegendNANA
13:00 2.5 -7.1 49 0.0       101.68     LegendNANA
14:00 2.5 -5.9 54 0.0       101.71     LegendNANA
15:00 2.5 -6.3 52 0.0       101.69     LegendNANA
16:00 2.5 -5.9 54 0.0       101.68     LegendNANA
17:00 2.3 -5.3 57 0.0       101.66     LegendNANA
18:00 1.8 -4.9 61 0.0       101.70     LegendNANA
19:00 1.0 -4.6 66 0.0       101.72     LegendNANA
20:00 1.4 -5.2 62 0.0       101.78     LegendNANA
21:00 1.0 -5.5 61 0.0       101.79     LegendNANA
22:00 0.7 -5.5 63 0.0       101.76     LegendNANA
23:00 0.4 -5.7 64 0.0       101.72     LegendNANA

Notes on Data Quality.

Legend

  • E = Estimated
  • M = Missing
  • NA = Not Available*
  • [empty] = Indicates an unobserved value
Date modified: